| time (UTC) | temp C | wind direction | speed KPH | gust KPH | rain 1hr cm | rain 24hr cm | rain mn cm | humidity % | barometer mb |
| 20260507152606 | 11 | 175 | 4.8 | 24.1 | 0.03 | 0.10 | 0.10 | 95 | 1005.7 |
| 20260507144236 | 11 | 186 | 16.1 | 35.4 | 0.00 | 0.08 | 0.08 | 94 | 1006.2 |
| 20260507140040 | 11 | 195 | 14.5 | 29.0 | 0.00 | 0.08 | 0.08 | 94 | 1006.4 |
| 20260507132019 | 11 | 207 | 9.7 | 37.0 | 0.00 | 0.08 | 0.08 | 94 | 1006.6 |
| 20260507124031 | 11 | 207 | 8.0 | 30.6 | 0.00 | 0.08 | 0.08 | 94 | 1006.9 |
| 20260507115713 | 11 | 200 | 12.9 | 30.6 | 0.00 | 0.08 | 0.08 | 94 | 1007.2 |
| 20260507111949 | 11 | 195 | 11.3 | 37.0 | 0.00 | 0.08 | 0.08 | 93 | 1007.5 |
| 20260507103855 | 11 | 167 | 11.3 | 32.2 | 0.00 | 0.08 | 0.08 | 93 | 1007.7 |
| 20260507095627 | 11 | 179 | 8.0 | 32.2 | 0.03 | 0.08 | 0.08 | 94 | 1007.5 |
| 20260507090937 | 11 | 141 | 14.5 | 29.0 | 0.03 | 0.08 | 0.08 | 93 | 1007.8 |
| 20260507083053 | 11 | 180 | 6.4 | 30.6 | 0.03 | 0.08 | 0.08 | 93 | 1007.5 |
| 20260507075541 | 11 | 194 | 12.9 | 29.0 | 0.03 | 0.08 | 0.08 | 93 | 1008.3 |
| 20260507071700 | 11 | 162 | 12.9 | 22.5 | 0.00 | 0.05 | 0.05 | 93 | 1008.6 |
| 20260507063714 | 12 | 205 | 8.0 | 19.3 | 0.00 | 0.05 | 0.05 | 92 | 1008.4 |
| 20260507055832 | 12 | 198 | 6.4 | 30.6 | 0.00 | 0.05 | 0.05 | 91 | 1008.6 |
| 20260507051954 | 12 | 186 | 6.4 | 27.4 | 0.00 | 0.05 | 0.05 | 89 | 1008.7 |
| 20260507044600 | 12 | 199 | 9.7 | 25.7 | 0.00 | 0.05 | 0.05 | 88 | 1008.5 |
| 20260507040522 | 12 | 101 | 8.0 | 27.4 | 0.00 | 0.05 | 0.05 | 88 | 1008.5 |
| 20260507033034 | 12 | 183 | 11.3 | 25.7 | 0.00 | 0.05 | 0.05 | 88 | 1008.8 |
| 20260507025359 | 12 | 200 | 8.0 | 24.1 | 0.00 | 0.05 | 0.05 | 88 | 1008.9 |
| 20260507022003 | 12 | 184 | 8.0 | 29.0 | 0.00 | 0.05 | 0.05 | 88 | 1008.9 |
| 20260507015413 | 12 | 189 | 8.0 | 25.7 | 0.00 | 0.05 | 0.05 | 87 | 1009.0 |
| 20260507011934 | 12 | 196 | 8.0 | 37.0 | 0.00 | 0.05 | 0.05 | 87 | 1009.0 |
| 20260507004909 | 12 | 190 | 19.3 | 38.6 | 0.00 | 0.05 | 0.05 | 86 | 1008.4 |
| 20260507001548 | 13 | 231 | 8.0 | 29.0 | 0.00 | 0.05 | 0.05 | 86 | 1008.7 |
| 20260506235517 | 13 | 189 | 9.7 | 27.4 | 0.00 | 0.05 | 0.05 | 85 | 1008.8 |
| 20260506233633 | 13 | 233 | 11.3 | 40.2 | 0.00 | 0.05 | 0.05 | 86 | 1008.8 |
| 20260506231748 | 13 | 205 | 12.9 | 40.2 | 0.00 | 0.05 | 0.05 | 85 | 1008.8 |
| 20260506230121 | 13 | 221 | 11.3 | 35.4 | 0.00 | 0.05 | 0.05 | 86 | 1009.1 |
| 20260506224016 | 13 | 209 | 6.4 | 29.0 | 0.00 | 0.05 | 0.05 | 86 | 1009.0 |
| 20260506222136 | 13 | 175 | 11.3 | 32.2 | 0.00 | 0.05 | 0.05 | 85 | 1009.2 |
| 20260506220048 | 13 | 200 | 11.3 | 33.8 | 0.00 | 0.05 | 0.05 | 85 | 1009.3 |
| 20260506214250 | 13 | 184 | 11.3 | 37.0 | 0.00 | 0.05 | 0.05 | 85 | 1009.3 |
| 20260506212407 | 13 | 176 | 14.5 | 45.1 | 0.00 | 0.05 | 0.05 | 84 | 1009.4 |
| 20260506210523 | 13 | 180 | 8.0 | 29.0 | 0.00 | 0.05 | 0.05 | 84 | 1009.4 |
| 20260506204547 | 14 | 165 | 16.1 | 30.6 | 0.00 | 0.05 | 0.05 | 82 | 1009.4 |
| 20260506202539 | 13 | 168 | 8.0 | 35.4 | 0.00 | 0.05 | 0.05 | 84 | 1009.7 |
| 20260506200435 | 13 | 215 | 12.9 | 29.0 | 0.00 | 0.05 | 0.05 | 84 | 1009.9 |
| 20260506194556 | 13 | 192 | 9.7 | 38.6 | 0.00 | 0.05 | 0.05 | 85 | 1010.1 |
| 20260506192455 | 13 | 209 | 9.7 | 37.0 | 0.00 | 0.05 | 0.05 | 85 | 1010.1 |
| 20260506190333 | 13 | 167 | 12.9 | 29.0 | 0.00 | 0.05 | 0.05 | 86 | 1010.3 |
| 20260506184453 | 13 | 161 | 9.7 | 29.0 | 0.00 | 0.05 | 0.05 | 86 | 1010.3 |
| 20260506182722 | 13 | 210 | 8.0 | 22.5 | 0.00 | 0.05 | 0.05 | 85 | 1010.2 |
| 20260506180836 | 13 | 203 | 8.0 | 17.7 | 0.00 | 0.05 | 0.05 | 84 | 1010.2 |
| 20260506175111 | 13 | 185 | 8.0 | 24.1 | 0.00 | 0.05 | 0.05 | 83 | 1010.8 |
| 20260506173231 | 14 | 183 | 9.7 | 19.3 | 0.00 | 0.05 | 0.05 | 82 | 1011.0 |
| 20260506171350 | 15 | 151 | 8.0 | 27.4 | 0.00 | 0.05 | 0.05 | 80 | 1011.1 |
| 20260506165140 | 15 | 188 | 11.3 | 24.1 | 0.00 | 0.05 | 0.05 | 80 | 1010.9 |
| 20260506163141 | 15 | 168 | 11.3 | 25.7 | 0.00 | 0.05 | 0.05 | 80 | 1010.7 |
| 20260506161541 | 14 | 158 | 4.8 | 17.7 | 0.00 | 0.05 | 0.05 | 82 | 1010.7 |
| 20260506155642 | 14 | 193 | 9.7 | 22.5 | 0.00 | 0.05 | 0.05 | 81 | 1011.0 |